Retour au catalogue

SIRION PATHFINDER-2

ActifScienceSSO
NORAD 43759·PAYLOAD·🇺🇸 United States

Lancé Dec 3, 2018 depuis Vandenberg Space Force Base

Loading…

Prochains Passages (prochaines 24 heures)

TLE

FraisSource: Space-Track

Époque: Sep 14, 2026, 02:09 UTC

1 43759U 18099B   26257.08989207  .00003669  00000-0  19880-3 0  9993
2 43759  97.4166 304.0329 0008454   3.0415 357.0867 15.15189398426084

Suivez SIRION PATHFINDER-2 en temps réel avec AllMySat

Download on the App Store